GW0353 Weather Reports


time (UTC)temp
C
wind
direction
speed
KPH
gust
KPH
rain 1hr
cm
rain 24hr
cm
rain mn
cm
humidity
%
barometer
mb
20260505003058 11 338 4.8 14.5 0.00 0.00 0.00 44 1012.6
20260505002557 11 341 3.2 16.1 0.00 0.00 0.00 43 1012.5
20260505002101 11 269 6.4 16.1 0.00 0.00 0.00 42 1012.5
20260505001558 12 291 6.4 16.1 0.00 0.00 0.00 42 1012.4
20260505001057 12 295 1.6 8.0 0.00 0.00 0.00 42 1012.6
20260505000557 12 0 0.0 11.3 0.00 0.00 0.00 41 1012.4
20260505000108 12 309 0.0 11.3 0.00 0.00 0.00 40 1012.5
20260504235558 12 139 1.6 14.5 0.00 0.00 0.00 41 1012.5
20260504235058 11 330 3.2 14.5 0.00 0.00 0.00 44 1012.6
20260504234607 11 264 3.2 20.9 0.00 0.00 0.00 46 1012.6
20260504234102 11 182 3.2 20.9 0.00 0.00 0.00 45 1012.7
20260504233558 11 242 3.2 20.9 0.00 0.00 0.00 44 1012.7
20260504233059 11 137 4.8 17.7 0.00 0.00 0.00 44 1012.6
20260504232558 11 236 4.8 14.5 0.00 0.00 0.00 45 1012.8
20260504232101 11 69 4.8 20.9 0.00 0.00 0.00 46 1012.7
20260504231557 11 262 4.8 20.9 0.00 0.00 0.00 48 1012.6
20260504231057 11 282 3.2 12.9 0.00 0.00 0.00 49 1012.9
20260504230558 11 259 1.6 11.3 0.00 0.00 0.00 48 1013.0
20260504230059 11 255 3.2 11.3 0.00 0.00 0.00 49 1013.3
20260504225558 11 297 3.2 12.9 0.00 0.00 0.00 48 1013.4
20260504225057 11 110 3.2 14.5 0.00 0.00 0.00 50 1013.5
20260504224602 11 143 4.8 20.9 0.00 0.00 0.00 51 1013.4
20260504224057 11 110 6.4 20.9 0.00 0.00 0.00 50 1013.5
20260504223557 11 205 3.2 17.7 0.00 0.00 0.00 50 1013.4
20260504223058 11 352 4.8 16.1 0.00 0.00 0.00 50 1013.5
20260504222558 11 181 4.8 17.7 0.00 0.00 0.00 48 1013.6
20260504222101 12 254 4.8 17.7 0.00 0.00 0.00 47 1013.5
20260504221602 12 46 4.8 16.1 0.00 0.00 0.00 45 1013.7
20260504221057 12 257 3.2 12.9 0.00 0.00 0.00 42 1013.6
20260504220558 12 294 1.6 12.9 0.00 0.00 0.00 42 1013.7
20260504220107 11 277 4.8 11.3 0.00 0.00 0.00 44 1013.7
20260504215559 11 174 3.2 11.3 0.00 0.00 0.00 44 1013.7
20260504215057 11 308 3.2 11.3 0.00 0.00 0.00 45 1013.9
20260504214559 11 72 1.6 6.4 0.00 0.00 0.00 46 1013.7
20260504214057 11 0 1.6 6.4 0.00 0.00 0.00 47 1013.8
20260504213557 11 309 1.6 6.4 0.00 0.00 0.00 45 1013.9
20260504213110 10 0 1.6 8.0 0.00 0.00 0.00 48 1013.8
20260504212558 10 338 1.6 8.0 0.00 0.00 0.00 50 1013.9
20260504212057 10 42 1.6 9.7 0.00 0.00 0.00 50 1013.8
20260504211558 10 323 4.8 11.3 0.00 0.00 0.00 53 1013.9
20260504211057 10 91 3.2 14.5 0.00 0.00 0.00 56 1013.9
20260504210600 10 85 3.2 14.5 0.00 0.00 0.00 54 1013.9
20260504210105 10 19 6.4 14.5 0.00 0.00 0.00 55 1013.7
20260504205559 10 17 4.8 11.3 0.00 0.00 0.00 54 1013.7
20260504205059 10 333 1.6 11.3 0.00 0.00 0.00 47 1013.5
20260504204603 10 50 1.6 11.3 0.00 0.00 0.00 52 1013.5
20260504204059 10 271 1.6 16.1 0.00 0.00 0.00 53 1013.7
20260504203557 10 173 4.8 17.7 0.00 0.00 0.00 52 1013.7
20260504203059 10 67 3.2 17.7 0.00 0.00 0.00 50 1013.8
20260504202557 10 235 4.8 16.1 0.00 0.00 0.00 51 1013.5
20260504202057 9 219 1.6 17.7 0.00 0.00 0.00 53 1013.5
20260504201558 9 198 3.2 17.7 0.00 0.00 0.00 52 1013.7
20260504201058 8 255 3.2 9.7 0.00 0.00 0.00 53 1013.9
20260504200558 8 250 3.2 9.7 0.00 0.00 0.00 55 1014.1
20260504200057 8 160 1.6 8.0 0.00 0.00 0.00 55 1014.3
20260504195557 8 252 1.6 11.3 0.00 0.00 0.00 55 1014.2
20260504195056 8 229 3.2 12.9 0.00 0.00 0.00 55 1014.6
20260504194559 8 238 1.6 12.9 0.00 0.00 0.00 55 1014.5
20260504194058 9 112 1.6 8.0 0.00 0.00 0.00 50 1014.4
20260504193558 9 200 0.0 8.0 0.00 0.00 0.00 48 1014.3
20260504193113 9 253 0.0 8.0 0.00 0.00 0.00 48 1014.4
20260504192557 9 59 3.2 8.0 0.00 0.00 0.00 49 1014.5
20260504192059 10 293 1.6 9.7 0.00 0.00 0.00 47 1014.4
20260504191555 10 251 1.6 9.7 0.00 0.00 0.00 48 1014.2
20260504191057 10 336 3.2 9.7 0.00 0.00 0.00 46 1014.2
20260504190601 10 315 1.6 9.7 0.00 0.00 0.00 44 1014.1
20260504190107 10 278 3.2 9.7 0.00 0.00 0.00 46 1014.1
20260504185557 11 4 1.6 9.7 0.00 0.00 0.00 44 1014.1
20260504185057 11 330 1.6 16.1 0.00 0.00 0.00 46 1014.1
20260504184555 10 280 1.6 17.7 0.00 0.00 0.00 46 1014.0
20260504184101 10 288 4.8 17.7 0.00 0.00 0.00 48 1014.0
20260504183558 10 307 3.2 11.3 0.00 0.00 0.00 48 1013.9
20260504183102 10 6 4.8 11.3 0.00 0.00 0.00 50 1014.0
20260504182557 10 266 0.0 8.0 0.00 0.00 0.00 53 1014.0
20260504182057 10 0 1.6 12.9 0.00 0.00 0.00 51 1014.0
20260504181558 10 6 3.2 12.9 0.00 0.00 0.00 51 1014.0
20260504181057 10 23 6.4 12.9 0.00 0.00 0.00 52 1013.9
20260504180602 11 340 3.2 12.9 0.00 0.00 0.00 52 1013.7
20260504180140 11 334 4.8 14.5 0.00 0.00 0.00 51 1013.7
20260504175559 11 295 6.4 14.5 0.00 0.00 0.00 51 1013.6
20260504175057 11 148 4.8 12.9 0.00 0.00 0.00 50 1013.4
20260504174555 12 243 4.8 12.9 0.00 0.00 0.00 49 1013.4
20260504174059 12 335 4.8 14.5 0.00 0.00 0.00 47 1013.5
20260504173555 13 82 6.4 14.5 0.00 0.00 0.00 45 1013.5
20260504173055 14 355 4.8 14.5 0.00 0.00 0.00 45 1013.2
20260504172558 14 286 4.8 9.7 0.00 0.00 0.00 43 1013.2
20260504172057 14 11 3.2 11.3 0.00 0.00 0.00 43 1013.1
20260504171556 13 314 4.8 11.3 0.00 0.00 0.00 43 1013.0
20260504171058 13 298 3.2 11.3 0.00 0.00 0.00 44 1013.0
20260504170558 14 286 3.2 11.3 0.00 0.00 0.00 43 1013.2
20260504151059 8 0 0.0 3.2 0.00 0.00 0.00 64 1014.3
20260504150558 8 52 0.0 4.8 0.00 0.00 0.00 67 1014.3
20260504141057 5 0 0.0 0.0 0.00 0.00 0.00 75 1014.4
20260504140557 5 0 0.0 0.0 0.00 0.00 0.00 79 1014.4
20260504130559 1 181 1.6 1.6 0.00 0.00 0.00 84 1014.3
20260504120108 1 196 0.0 3.2 0.00 0.00 0.00 86 1014.4
20260504110557 1 184 0.0 4.8 0.00 0.00 0.00 81 1014.6
20260504100557 2 0 0.0 1.6 0.00 0.00 0.00 78 1014.9
20260504100116 2 0 0.0 1.6 0.00 0.00 0.00 78 1015.0
20260504081608 3 172 0.0 0.0 0.00 0.00 0.00 74 1015.3
20260504081058 3 0 0.0 1.6 0.00 0.00 0.00 74 1015.2
20260504080558 3 0 0.0 3.2 0.00 0.00 0.00 74 1015.2
20260504060107 4 195 0.0 3.2 0.00 0.00 0.00 72 1015.9
20260504050558 3 0 0.0 1.6 0.00 0.00 0.00 75 1016.3
20260504050110 4 0 0.0 3.2 0.00 0.00 0.00 74 1016.2
20260504045557 4 0 0.0 3.2 0.00 0.00 0.00 73 1016.3
20260504045057 5 0 0.0 3.2 0.00 0.00 0.00 73 1016.1
20260504044626 5 167 0.0 1.6 0.00 0.00 0.00 74 1016.2
20260504044057 5 0 0.0 3.2 0.00 0.00 0.00 74 1016.1
20260504043600 5 136 1.6 4.8 0.00 0.00 0.00 74 1016.1
20260504043102 5 101 1.6 4.8 0.00 0.00 0.00 75 1016.0
20260504042559 5 113 0.0 3.2 0.00 0.00 0.00 74 1016.0
20260504042102 5 103 1.6 3.2 0.00 0.00 0.00 73 1016.0
20260504041559 5 0 0.0 1.6 0.00 0.00 0.00 72 1015.9
20260504041058 5 0 0.0 1.6 0.00 0.00 0.00 72 1015.9
20260504040557 6 0 0.0 1.6 0.00 0.00 0.00 70 1016.1
20260504040104 6 217 0.0 1.6 0.00 0.00 0.00 70 1016.2
20260504035558 6 165 0.0 1.6 0.00 0.00 0.00 70 1016.1
20260504035058 6 0 0.0 1.6 0.00 0.00 0.00 69 1016.1
20260504034617 6 0 0.0 4.8 0.00 0.00 0.00 68 1016.1
20260504034100 6 0 0.0 4.8 0.00 0.00 0.00 66 1015.9
20260504033557 7 149 3.2 4.8 0.00 0.00 0.00 66 1015.9
20260504033104 7 0 0.0 6.4 0.00 0.00 0.00 66 1015.8
20260504032557 7 0 1.6 6.4 0.00 0.00 0.00 65 1015.8
20260504032057 7 0 0.0 3.2 0.00 0.00 0.00 64 1015.7
20260504031604 7 0 0.0 3.2 0.00 0.00 0.00 63 1015.5
20260504031101 7 0 0.0 1.6 0.00 0.00 0.00 64 1015.5
20260504030558 7 0 0.0 1.6 0.00 0.00 0.00 64 1015.4
20260504030058 7 0 0.0 3.2 0.00 0.00 0.00 64 1015.4
20260504025557 7 0 0.0 3.2 0.00 0.00 0.00 64 1015.3
20260504025057 7 15 0.0 3.2 0.00 0.00 0.00 64 1015.2
20260504024600 7 53 0.0 3.2 0.00 0.00 0.00 64 1015.2
20260504024056 7 0 0.0 8.0 0.00 0.00 0.00 64 1015.1
20260504023557 7 0 1.6 8.0 0.00 0.00 0.00 65 1014.9
20260504023058 7 48 0.0 8.0 0.00 0.00 0.00 65 1014.9
20260504022557 7 64 4.8 8.0 0.00 0.00 0.00 64 1014.7
20260504022057 8 41 0.0 3.2 0.00 0.00 0.00 62 1014.6
20260504021557 8 68 0.0 3.2 0.00 0.00 0.00 59 1014.7
20260504021055 8 0 0.0 3.2 0.00 0.00 0.00 57 1014.7
20260504020555 9 199 0.0 3.2 0.00 0.00 0.00 55 1014.7
20260504020104 9 0 0.0 1.6 0.00 0.00 0.00 54 1014.7
20260504015557 10 248 0.0 4.8 0.00 0.00 0.00 55 1014.7
20260504015058 10 302 0.0 8.0 0.00 0.00 0.00 55 1014.6
20260504014605 10 298 1.6 9.7 0.00 0.00 0.00 54 1014.6
20260504014058 10 282 3.2 9.7 0.00 0.00 0.00 52 1014.4
20260504013558 10 127 1.6 9.7 0.00 0.00 0.00 48 1014.4
20260504013106 10 250 1.6 8.0 0.00 0.00 0.00 44 1014.4
20260504012559 11 23 3.2 8.0 0.00 0.00 0.00 45 1014.3
20260504012058 11 290 3.2 16.1 0.00 0.00 0.00 45 1014.2
20260504011600 11 299 6.4 16.1 0.00 0.00 0.00 43 1014.2
20260504011100 11 42 1.6 11.3 0.00 0.00 0.00 42 1014.2
20260504010557 11 307 0.0 22.5 0.00 0.00 0.00 43 1014.2
20260504010059 10 87 4.8 29.0 0.00 0.00 0.00 43 1014.1
20260504005559 10 127 9.7 29.0 0.00 0.00 0.00 45 1014.0
20260504005100 10 167 12.9 29.0 0.00 0.00 0.00 46 1014.2
20260504004606 10 179 12.9 27.4 0.00 0.00 0.00 47 1014.5
20260504004059 10 237 9.7 27.4 0.00 0.00 0.00 46 1014.4
20260504003559 10 219 6.4 16.1 0.00 0.00 0.00 48 1014.4